Regional Weather Roundup
Issued by NWS Raleigh/Durham, NC

Home | Current Version | Previous Version | Text Only | Print | Product List | Glossary On
Versions: 1 2 3 4 5 6 7 8 9 10 11 12 13 14 15 16 17 18 19 20 21 22 23 24 25 26 27 28
000
ASUS42 KRAH 171010
RWRRAH
NORTH CAROLINA WEATHER ROUNDUP
NATIONAL WEATHER SERVICE RALEIGH NC
600 AM EDT THU APR 17 2014

NOTE: "FAIR" INDICATES FEW OR NO CLOUDS BELOW 12,000 FEET WITH NO
SIGNIFICANT WEATHER AND/OR OBSTRUCTIONS TO VISIBILITY.

NCZ001-053-055-056-065-067-171100-
WESTERN NORTH CAROLINA

CITY           SKY/WX    TMP DP  RH WIND       PRES   REMARKS
ASHEVILLE      CLEAR     30  27  88 CALM      30.43R
JEFFERSON      CLEAR     32  18  57 CALM      30.42S
MORGANTON      CLEAR     32  29  90 N5        30.52R WCI  27
HICKORY        CLEAR     32  28  85 N3        30.47R
RUTHERFORDTON  CLEAR     37  28  69 N6        30.46S WCI  32
MOUNT AIRY     CLEAR     37  25  61 CALM      30.49R
BOONE          CLEAR     24  24 100 CALM      30.42S
$$

NCZ021-022-025-041-071-084-088-171100-
CENTRAL NORTH CAROLINA

CITY           SKY/WX    TMP DP  RH WIND       PRES   REMARKS
CHARLOTTE      CLEAR     38  29  70 NE8       30.47R WCI  32
GREENSBORO     CLEAR     33  27  78 N5        30.49R WCI  29
WINSTON-SALEM  CLEAR     33  26  75 NE6       30.51R WCI  28
RALEIGH-DURHAM PTCLDY    33  28  81 N3        30.51R
FORT BRAGG     CLEAR     36  30  80 N7        30.47S WCI  30
FAYETTEVILLE   CLEAR     36  30  79 N12       30.46S WCI  28
CHAPEL HILL    CLEAR     33  28  81 N3        30.51R
BURLINGTON     CLEAR     33  27  78 MISG      30.50R
LAURINBURG     CLEAR     35  31  85 NE9       30.47R WCI  28
$$

NCZ011-015-027-028-043-044-047-080-103-171100-
NORTHEASTERN NORTH CAROLINA

CITY           SKY/WX    TMP DP  RH WIND       PRES   REMARKS
GREENVILLE     CLEAR     34  32  93 CALM      30.48S
WASHINGTON     CLEAR     40  36  84 NE10      30.47S WCI  34
ELIZABETH CITY CLEAR     43  35  73 NE13      30.49R
MANTEO         PTCLDY    45  38  76 NE21      30.45R
CAPE HATTERAS  PTCLDY    47  42  83 NE14G28   30.40R
$$

NCZ078-087-090-091-093-098-101-171100-
SOUTHEASTERN NORTH CAROLINA

CITY           SKY/WX    TMP DP  RH WIND       PRES   REMARKS
LUMBERTON      CLEAR     37  29  72 NE9       30.45S WCI  30
GOLDSBORO      CLEAR     37  32  83 N7        30.47R WCI  31
KINSTON        CLEAR     37  33  84 N7        30.48S WCI  32
KENANSVILLE    CLEAR     36  32  85 CALM      30.48R
NEW BERN       CLEAR     41  34  76 N9        30.46R
CHERRY POINT   NOT AVBL
BEAUFORT       CLEAR     45  40  82 N15       30.41R
JACKSONVILLE   CLEAR     37  33  85 N8        30.45R WCI  31
WILMINGTON     CLEAR     39  32  76 NE13      30.42S WCI  31
$$




USA.gov is the U.S. government's official web portal to all federal, state and local government web resources and services.